Temp
65 64 64 64 64 64 64 64 62 62 62 63 63 63 63 63 63 63 63 63 64 63 63 64 64 64 63 58 59 74 72 73 70 68 65 62 61 60 55 60 63 61 64 69 64 60 64
64 64 64 64 64 63 63 63 63 63 62 62 63 63 62 62 63 63 63 63 63 63 62 63 63 62 60 50 72 75 72 71 70 67 65 63 63 65 61 61 60 65 66 66 62 60 62
64 64 64 63 63 63 63 62 62 62 63 61 62 62 62 62 62 62 63 63 63 62 62 62 63 65 58 56 73 73 72 70 71 68 62 68 67 61 62 58 65 65 57 60 59 61 60
63 63 63 63 63 63 62 62 62 62 62 62 61 61 61 61 61 62 62 62 62 62 62 63 63 63 54 71 70 72 72 68 71 71 67 68 67 62 60 63 62 56 55 47 59 60 61
63 63 62 63 63 62 62 62 62 62 62 62 61 61 60 60 61 61 61 62 62 62 63 63 62 58 55 69 66 71 71 66 68 68 68 71 65 58 58 51 47 51 43 48 53 62 58
63 62 62 62 62 62 62 62 61 62 61 61 60 60 60 60 60 60 60 61 63 62 63 68 66 55 62 59 66 68 70 68 64 63 60 59 55 50 50 46 37 42 45 50 49 57 58
62 62 61 62 61 62 61 61 61 61 60 60 59 59 59 59 60 60 60 61 57 55 60 57 58 59 62 66 68 65 68 65 62 57 48 54 44 40 48 52 55 53 51 49 54 58 54
62 62 61 61 61 61 61 61 61 61 60 59 59 59 59 59 60 60 60 61 59 60 52 63 63 63 66 66 58 62 68 56 54 47 53 49 41 52 57 56 54 51 48 49 51 56 53
61 61 61 61 61 60 60 60 60 60 60 59 59 59 59 59 60 59 63 61 66 66 52 59 63 62 63 64 58 58 63 59 53 49 50 45 50 58 55 52 51 49 47 49 49 52 52
61 61 61 60 60 60 60 60 60 60 59 58 58 59 59 59 56 63 61 65 66 65 44 52 57 60 63 62 55 65 65 57 54 48 51 49 55 53 50 50 52 45 54 53 52 45 37
60 60 60 60 60 59 59 60 59 59 59 58 58 59 60 57 59 60 61 65 65 58 28 54 57 68 63 56 57 57 63 58 51 52 48 43 48 47 48 50 52 47 52 51 50 44 40
60 60 60 59 59 59 59 59 59 59 58 57 58 59 59 60 61 61 64 63 58 41 26 45 57 55 55 56 57 58 57 59 57 51 52 48 52 50 48 52 51 53 49 48 46 41 29
59 59 59 59 59 58 58 58 59 58 58 57 58 58 58 64 57 63 62 56 40 34 51 47 48 54 53 52 53 54 52 48 44 35 36 46 47 49 52 46 49 48 40 28 27 27 28
59 59 59 59 58 58 58 58 58 58 58 57 58 57 59 63 64 62 57 48 34 46 47 54 52 52 48 52 51 52 49 45 50 47 39 34 30 46 50 45 41 43 40 29 27 25 29
58 58 58 58 58 58 58 57 58 57 57 57 56 59 60 60 62 59 52 39 37 46 51 49 51 45 48 52 49 49 48 47 49 49 39 38 35 47 50 50 46 42 35 43 36 39 33
58 58 58 58 57 57 57 57 57 57 56 57 58 60 58 61 61 55 47 42 46 52 52 52 44 48 44 48 46 46 47 49 48 50 50 46 35 45 47 47 47 42 46 35 32 28 29
58 58 58 58 57 56 56 56 56 57 57 57 57 55 56 61 57 51 42 43 50 55 53 49 47 47 48 46 46 46 46 46 51 48 48 46 42 36 42 41 42 39 39 41 40 37 30
58 58 58 57 56 56 56 56 56 56 56 53 57 51 57 58 48 49 45 47 47 51 53 51 50 49 46 47 45 45 45 46 50 48 44 43 42 33 39 44 46 43 42 45 33 35 36
58 58 58 57 56 56 56 55 56 56 56 55 54 56 57 55 45 47 47 50 50 49 49 50 49 51 50 45 40 45 46 47 49 47 41 44 39 28 30 36 41 38 43 44 44 38 33
58 58 57 57 56 55 55 55 55 56 56 53 54 49 53 53 53 48 46 48 47 48 49 50 49 50 49 47 48 42 44 47 46 47 48 46 41 38 30 32 40 34 39 43 41 28 34
58 58 57 57 56 56 55 55 55 55 55 53 55 51 50 47 50 49 48 49 48 47 48 49 46 47 46 42 46 43 45 46 46 47 43 43 35 34 37 41 41 40 40 41 36 39 35
59 58 57 57 56 56 55 54 54 55 54 52 50 50 49 51 51 48 47 49 48 50 48 47 44 49 47 43 44 42 46 44 42 42 40 43 33 35 33 41 40 36 40 41 42 42 42
59 59 59 58 56 56 55 54 54 54 54 54 53 53 51 49 51 47 49 50 50 49 52 53 49 46 46 47 47 48 48 48 47 44 41 41 36 34 30 37 38 33 40 41 40 42 43
59 58 59 59 57 56 55 54 54 54 53 52 54 52 49 46 49 51 51 50 50 50 47 51 51 46 46 50 50 47 45 46 46 45 46 40 39 36 30 35 24 41 43 44 43 47 46
58 58 58 58 58 56 56 55 54 54 54 51 53 50 49 45 50 51 52 49 50 50 46 48 51 49 50 45 41 40 38 37 40 42 40 42 39 32 29 29 38 42 40 40 39 41 47
58 58 58 58 58 57 56 55 54 54 54 50 52 53 48 44 46 53 49 50 45 45 46 48 48 50 46 44 41 31 32 36 33 31 38 40 39 32 32 28 27 38 41 45 43 33 43
58 57 57 57 57 56 56 56 55 54 54 51 50 52 48 43 50 50 46 47 50 46 44 45 44 42 45 39 34 33 34 40 33 32 28 30 31 28 29 27 35 41 42 43 31 34 41
54 55 56 56 56 56 56 56 55 54 53 50 49 53 47 44 48 51 52 48 46 46 44 44 43 42 39 35 35 37 36 39 35 38 36 34 30 29 31 28 26 43 40 36 40 41 42
52 53 53 53 54 55 55 55 56 55 53 52 45 52 52 44 45 51 52 53 51 50 48 47 45 44 45 38 39 38 35 36 36 31 38 33 40 36 38 37 43 44 40 42 45 42 42
MSLP
1021.30 1021.13 1020.98 1020.84 1020.69 1020.61 1020.40 1020.19 1020.02 1019.80 1019.63 1019.44 1019.21 1019.04 1018.88 1018.64 1018.39 1018.17 1018.01 1017.68 1017.28 1017.01 1016.69 1016.21 1015.99 1015.85 1015.94 1015.08 1014.40 1013.99 1014.02 1013.80 1014.12 1014.41 1014.09 1014.01 1013.56 1013.12 1012.50 1011.76 1011.34 1011.02 1010.52 1010.23 1010.79 1011.28 1010.91
1021.48 1021.31 1021.16 1021.04 1020.88 1020.68 1020.42 1020.08 1019.82 1019.55 1019.39 1019.19 1019.14 1019.05 1018.90 1018.75 1018.47 1018.21 1018.05 1017.81 1017.48 1017.20 1017.02 1016.57 1016.32 1016.13 1015.79 1014.99 1014.18 1013.99 1013.95 1013.82 1013.76 1014.02 1013.97 1014.20 1013.30 1012.89 1012.33 1011.64 1011.25 1010.55 1010.63 1010.60 1011.06 1011.58 1011.80
1021.65 1021.54 1021.36 1021.18 1020.95 1020.68 1020.40 1020.10 1019.70 1019.40 1019.15 1019.09 1018.87 1018.92 1018.86 1018.70 1018.54 1018.26 1018.02 1017.82 1017.53 1017.30 1017.25 1016.99 1016.65 1016.14 1015.52 1014.95 1014.28 1014.25 1013.95 1013.65 1013.71 1013.99 1014.29 1013.86 1013.60 1013.40 1012.53 1011.68 1011.03 1010.61 1011.09 1010.89 1011.38 1011.66 1011.68
1021.75 1021.56 1021.37 1021.23 1020.93 1020.64 1020.42 1020.13 1019.76 1019.37 1019.14 1018.96 1018.75 1018.63 1018.75 1018.65 1018.51 1018.30 1018.01 1017.78 1017.52 1017.29 1017.08 1016.96 1016.81 1016.27 1015.15 1014.53 1014.45 1014.07 1013.91 1013.97 1014.01 1014.16 1014.52 1014.15 1014.02 1013.78 1012.98 1012.19 1011.23 1011.23 1011.19 1011.34 1011.38 1011.77 1011.65
1021.77 1021.60 1021.52 1021.29 1020.91 1020.71 1020.43 1020.15 1019.75 1019.38 1019.13 1019.06 1018.97 1018.72 1018.56 1018.55 1018.45 1018.24 1018.00 1017.76 1017.47 1017.21 1016.95 1016.86 1016.66 1016.16 1014.78 1014.48 1014.34 1014.15 1014.03 1013.90 1014.14 1014.34 1014.44 1014.21 1014.26 1013.83 1013.15 1012.91 1012.38 1012.07 1011.71 1011.49 1011.38 1011.25 1011.41
1021.96 1021.75 1021.58 1021.35 1020.99 1020.67 1020.42 1020.10 1019.80 1019.42 1019.18 1019.12 1019.11 1018.97 1018.70 1018.42 1018.34 1018.17 1017.89 1017.64 1017.29 1017.20 1016.84 1016.22 1016.16 1016.02 1014.94 1014.66 1014.48 1014.42 1014.26 1014.23 1014.20 1014.32 1014.62 1014.35 1014.28 1013.87 1013.52 1013.08 1012.37 1011.99 1011.79 1011.26 1011.06 1011.23 1011.31
1022.16 1021.87 1021.70 1021.42 1021.16 1020.74 1020.49 1020.21 1019.78 1019.45 1019.24 1019.14 1019.02 1018.90 1018.69 1018.45 1018.18 1018.07 1017.80 1017.40 1017.62 1017.25 1016.42 1015.74 1015.50 1014.99 1014.76 1014.89 1014.77 1014.42 1014.39 1014.36 1014.51 1014.61 1014.42 1014.29 1014.32 1013.84 1013.31 1012.75 1012.05 1011.76 1011.60 1011.32 1010.76 1010.86 1011.25
1022.26 1022.02 1021.82 1021.62 1021.33 1021.00 1020.56 1020.19 1019.85 1019.48 1019.32 1019.21 1019.03 1018.78 1018.65 1018.44 1018.13 1017.91 1017.92 1017.17 1017.28 1017.33 1016.31 1015.33 1015.16 1014.78 1014.79 1014.77 1014.54 1014.45 1014.55 1014.47 1014.64 1014.64 1014.32 1014.37 1014.11 1013.47 1013.01 1012.43 1012.08 1011.91 1011.72 1011.12 1011.54 1011.21 1011.44
1022.39 1022.20 1021.98 1021.76 1021.44 1021.15 1020.68 1020.26 1019.88 1019.56 1019.25 1019.04 1018.89 1018.70 1018.48 1018.34 1018.20 1017.91 1017.44 1017.47 1017.30 1017.04 1016.53 1015.21 1014.83 1014.47 1014.48 1014.72 1014.31 1014.36 1014.60 1014.21 1014.41 1014.54 1014.24 1014.05 1013.79 1013.05 1013.11 1012.67 1012.43 1012.19 1011.82 1011.20 1011.26 1011.65 1011.71
1022.48 1022.29 1022.11 1021.85 1021.49 1021.20 1020.82 1020.34 1019.89 1019.58 1019.38 1019.02 1018.70 1018.60 1018.51 1018.33 1018.65 1017.57 1017.34 1017.41 1017.27 1017.14 1016.48 1015.40 1014.62 1014.50 1014.45 1014.36 1014.45 1014.48 1014.49 1014.69 1014.18 1014.15 1014.02 1014.05 1013.87 1013.60 1013.36 1013.22 1012.90 1012.47 1011.88 1011.62 1011.52 1011.87 1012.26
1022.66 1022.32 1022.10 1021.92 1021.62 1021.23 1020.87 1020.38 1019.95 1019.60 1019.35 1019.19 1018.86 1018.55 1018.40 1018.43 1018.35 1017.67 1017.99 1017.57 1017.33 1017.29 1016.58 1015.36 1014.64 1014.45 1014.35 1014.55 1014.55 1014.58 1014.65 1014.49 1014.38 1014.05 1014.46 1014.45 1014.19 1014.05 1013.83 1013.50 1013.07 1012.97 1012.68 1012.37 1012.42 1012.74 1012.65
1022.77 1022.30 1022.13 1021.93 1021.70 1021.31 1020.94 1020.40 1020.00 1019.66 1019.37 1019.11 1018.83 1018.59 1018.50 1018.27 1018.06 1018.12 1017.90 1017.74 1017.65 1017.49 1016.47 1015.40 1014.68 1014.44 1014.33 1014.27 1014.29 1014.60 1014.64 1014.68 1014.53 1014.49 1014.35 1014.54 1014.72 1014.56 1014.49 1014.04 1013.81 1013.52 1013.26 1013.18 1013.29 1013.74 1013.94
1022.74 1022.48 1022.12 1021.94 1021.71 1021.31 1020.85 1020.49 1020.04 1019.67 1019.34 1019.10 1019.02 1018.81 1018.67 1018.15 1018.19 1018.05 1017.93 1017.81 1017.75 1016.79 1016.28 1015.50 1014.90 1014.47 1014.19 1014.07 1014.16 1014.28 1014.37 1014.44 1014.44 1014.82 1014.55 1014.63 1014.72 1014.80 1014.73 1014.32 1014.16 1014.11 1013.95 1014.39 1015.01 1015.15 1014.81
1022.85 1022.59 1022.22 1021.91 1021.69 1021.42 1020.94 1020.63 1020.10 1019.59 1019.07 1019.08 1018.97 1019.02 1018.81 1018.45 1018.31 1018.17 1017.96 1017.95 1017.38 1016.59 1015.97 1015.58 1015.05 1014.59 1014.28 1013.96 1013.85 1014.00 1014.17 1014.09 1014.13 1014.46 1014.51 1014.74 1015.11 1014.98 1015.00 1014.86 1014.79 1014.45 1014.38 1014.97 1015.30 1015.19 1014.97
1022.88 1022.66 1022.31 1021.93 1021.68 1021.39 1021.04 1020.63 1020.16 1019.72 1019.05 1018.80 1018.95 1018.68 1018.41 1018.63 1018.57 1018.41 1018.18 1017.78 1017.58 1016.92 1016.52 1015.93 1015.00 1014.56 1013.74 1013.79 1014.15 1013.92 1013.73 1013.73 1014.01 1014.38 1014.64 1014.39 1015.02 1015.28 1015.29 1015.14 1015.23 1014.86 1014.85 1014.94 1015.17 1014.30 1014.60
1022.77 1022.62 1022.32 1022.00 1021.78 1021.45 1021.12 1020.78 1020.37 1019.95 1019.45 1018.96 1018.74 1018.42 1018.44 1018.65 1018.68 1018.56 1018.18 1017.75 1017.29 1017.21 1016.92 1016.28 1015.53 1014.81 1014.20 1013.76 1013.90 1013.79 1013.57 1014.00 1014.27 1014.64 1014.81 1014.67 1014.92 1015.26 1015.48 1015.61 1015.39 1015.16 1015.06 1015.17 1015.24 1015.29 1014.38
1022.68 1022.61 1022.31 1022.10 1021.86 1021.53 1021.25 1020.89 1020.49 1020.01 1019.71 1019.28 1018.87 1018.29 1018.70 1018.61 1018.75 1018.57 1018.19 1017.81 1017.42 1017.17 1017.17 1016.83 1016.15 1015.51 1014.82 1014.39 1014.10 1013.94 1013.92 1014.73 1014.88 1015.07 1015.14 1015.19 1015.16 1015.78 1015.72 1015.37 1014.86 1015.29 1014.88 1015.01 1015.21 1015.06 1014.55
1022.56 1022.55 1022.38 1022.08 1021.93 1021.64 1021.33 1021.05 1020.62 1020.09 1019.40 1019.27 1018.68 1018.49 1018.36 1018.54 1018.73 1017.78 1017.98 1018.00 1017.95 1017.30 1017.20 1017.11 1016.72 1016.12 1015.59 1015.06 1014.72 1014.31 1014.53 1015.05 1015.53 1015.65 1015.60 1015.76 1015.69 1015.49 1015.19 1014.89 1014.67 1014.37 1014.26 1014.32 1015.05 1014.90 1014.50
1022.32 1022.36 1022.45 1022.16 1021.87 1021.71 1021.41 1021.16 1020.82 1020.40 1020.00 1019.50 1018.63 1018.05 1018.36 1018.21 1018.05 1017.63 1017.65 1017.48 1017.54 1017.39 1017.25 1016.96 1016.70 1016.33 1015.90 1015.60 1015.43 1015.03 1015.29 1015.80 1015.99 1016.14 1016.29 1016.44 1016.03 1015.58 1015.50 1015.61 1015.18 1014.71 1014.29 1014.17 1014.54 1015.08 1014.87
1022.17 1022.10 1022.20 1022.22 1021.89 1021.66 1021.41 1021.17 1020.91 1020.41 1020.17 1019.90 1018.78 1018.13 1018.11 1017.92 1017.60 1017.40 1017.26 1017.06 1017.16 1017.33 1017.37 1017.34 1017.10 1016.84 1016.34 1015.65 1015.40 1015.44 1015.47 1015.88 1016.31 1016.48 1016.69 1016.72 1016.24 1015.91 1015.76 1015.25 1014.89 1014.82 1014.45 1014.43 1014.81 1015.33 1014.26
1021.87 1021.87 1021.97 1022.01 1021.90 1021.67 1021.37 1021.16 1020.99 1020.56 1020.14 1020.11 1018.70 1018.22 1018.04 1017.67 1017.33 1017.13 1017.09 1016.86 1016.80 1017.02 1017.26 1017.16 1016.94 1016.86 1016.72 1016.31 1015.72 1015.66 1015.62 1015.81 1016.29 1016.55 1016.79 1016.87 1016.55 1015.83 1015.39 1014.95 1014.64 1014.40 1014.34 1014.50 1014.82 1014.25 1014.04
1021.45 1021.54 1021.68 1021.77 1021.78 1021.64 1021.41 1021.14 1020.91 1020.56 1020.23 1019.85 1019.03 1018.50 1018.45 1017.55 1017.16 1016.93 1016.77 1016.34 1016.36 1016.43 1016.75 1016.76 1016.96 1016.60 1016.74 1016.63 1016.30 1016.22 1016.19 1016.05 1016.08 1016.63 1016.59 1016.67 1016.52 1016.06 1015.42 1014.38 1014.42 1014.47 1014.23 1014.11 1013.99 1013.99 1013.51
1021.10 1021.12 1021.22 1021.43 1021.52 1021.54 1021.43 1021.27 1021.03 1020.56 1020.09 1019.65 1019.09 1018.67 1018.29 1017.51 1016.87 1016.77 1016.04 1015.66 1015.90 1016.30 1016.13 1016.23 1016.51 1016.73 1016.77 1016.76 1016.64 1016.39 1016.36 1016.29 1016.35 1016.51 1016.64 1016.62 1016.64 1016.27 1015.56 1014.84 1014.54 1014.10 1012.65 1012.81 1012.83 1012.48 1012.67
1020.70 1020.77 1020.89 1021.04 1021.17 1021.30 1021.28 1021.21 1021.05 1020.97 1020.88 1020.37 1019.48 1019.23 1018.83 1017.50 1016.87 1016.28 1015.90 1015.85 1015.96 1016.18 1016.36 1016.19 1016.53 1016.91 1016.98 1016.85 1016.73 1016.55 1016.39 1016.25 1016.40 1016.45 1016.72 1016.75 1016.86 1016.69 1016.01 1015.13 1014.26 1012.24 1012.04 1011.97 1012.09 1011.90 1011.99
1020.19 1020.35 1020.52 1020.67 1020.78 1020.81 1021.04 1021.10 1021.05 1020.96 1020.74 1020.67 1019.98 1019.58 1018.89 1018.01 1016.60 1015.96 1015.89 1016.02 1015.94 1016.13 1016.49 1016.43 1016.46 1016.66 1016.83 1017.02 1017.12 1016.71 1016.35 1016.38 1016.13 1016.64 1016.96 1017.27 1017.30 1017.03 1016.44 1015.51 1013.50 1012.24 1012.24 1012.28 1012.14 1011.66 1011.38
1019.68 1019.80 1020.00 1020.21 1020.45 1020.40 1020.46 1020.70 1020.82 1020.88 1020.90 1020.53 1020.12 1019.98 1019.36 1018.64 1016.77 1015.82 1015.73 1015.69 1015.93 1015.87 1016.13 1016.46 1016.89 1017.01 1017.16 1017.16 1017.31 1017.08 1016.48 1015.98 1016.36 1017.07 1017.56 1017.77 1017.78 1018.11 1016.79 1016.14 1014.41 1012.84 1012.77 1012.58 1012.61 1012.43 1011.98
1019.12 1019.16 1019.35 1019.51 1019.78 1019.82 1019.89 1020.07 1020.31 1020.54 1020.64 1020.87 1020.01 1020.00 1019.93 1018.66 1016.94 1016.20 1016.00 1015.84 1015.79 1015.77 1015.98 1016.30 1016.95 1017.30 1017.39 1017.26 1017.37 1016.95 1016.19 1015.73 1016.06 1016.36 1017.25 1017.77 1017.93 1017.65 1017.27 1016.23 1014.32 1013.20 1013.18 1013.27 1013.59 1013.67 1013.03
1018.92 1019.01 1018.93 1019.02 1019.18 1019.30 1019.32 1019.39 1019.67 1019.85 1020.09 1020.61 1020.07 1019.61 1019.75 1018.81 1017.17 1016.42 1015.90 1015.84 1015.93 1015.90 1015.87 1016.46 1016.94 1016.95 1017.51 1017.44 1016.98 1016.17 1015.62 1015.27 1015.51 1015.37 1015.83 1016.44 1016.81 1016.79 1016.48 1015.79 1014.59 1013.46 1013.72 1013.83 1013.71 1013.67 1013.80
1019.13 1018.98 1018.89 1018.94 1018.69 1018.64 1018.74 1018.87 1018.92 1019.11 1019.38 1019.78 1020.04 1019.63 1019.64 1019.46 1017.50 1016.65 1016.40 1015.55 1015.70 1015.94 1015.90 1015.80 1015.64 1015.95 1016.00 1016.43 1016.06 1015.50 1015.29 1015.15 1015.12 1015.34 1015.34 1015.55 1014.98 1015.00 1014.71 1013.98 1013.51 1013.42 1013.54 1013.56 1013.60 1013.92 1014.18
Wind_Speed
9 10 10 10 11 11 11 10 10 9 9 10 10 11 11 10 9 9 10 12 14 14 14 12 4 1 3 5 3 4 3 6 6 8 6 8 8 8 12 9 8 15 10 13 6 3 5
10 10 11 11 11 12 12 12 10 9 8 9 9 10 11 11 10 9 9 9 10 11 11 11 7 6 5 3 6 8 7 2 5 7 5 10 8 9 7 14 13 9 11 8 5 6 4
10 11 11 12 12 12 13 12 12 9 7 7 7 9 10 11 11 10 10 9 9 10 10 10 10 5 4 3 8 6 4 4 4 2 3 10 7 9 7 8 10 7 9 3 5 5 5
10 10 11 12 13 15 14 12 13 10 8 6 6 6 9 10 10 10 9 9 9 9 9 9 10 6 4 2 5 7 3 3 3 1 5 7 5 7 8 11 4 4 5 5 8 9 5
9 10 11 13 14 15 15 15 13 11 9 8 8 7 7 9 10 9 10 8 9 8 8 7 5 2 2 1 2 5 4 1 3 2 4 4 3 5 3 6 3 6 6 9 7 11 6
9 10 11 13 13 14 15 15 15 12 10 8 9 9 8 8 9 8 11 7 7 7 6 6 6 4 3 3 3 2 3 1 1 1 4 3 4 4 4 5 7 8 9 10 7 9 6
10 11 12 13 14 14 15 16 15 13 10 8 8 9 9 8 7 7 7 4 3 4 8 3 5 5 2 2 1 1 1 3 1 1 3 6 3 4 9 10 13 4 9 11 5 7 6
10 12 12 13 14 15 15 16 15 13 10 10 9 8 8 8 6 5 4 4 4 2 5 1 3 3 1 2 2 3 2 2 2 2 8 4 6 9 8 6 9 4 9 10 6 5 5
10 12 13 14 14 15 16 16 16 15 11 9 10 8 6 7 7 3 3 5 4 5 4 4 1 2 3 3 4 4 3 2 3 3 6 4 6 2 3 4 6 7 7 8 2 7 3
10 12 13 14 14 14 15 15 16 15 13 10 8 7 6 3 2 2 1 3 4 4 3 3 2 2 3 3 1 1 1 2 3 3 4 4 1 4 2 6 7 8 7 5 4 6 3
10 11 13 13 13 13 14 15 16 15 12 11 8 6 3 1 6 2 4 4 4 2 3 4 2 1 1 4 2 4 2 3 5 1 2 2 5 3 5 3 7 2 6 5 4 4 3
9 10 12 12 13 13 14 14 15 16 13 11 6 4 2 3 3 3 4 5 2 2 3 2 1 1 5 3 3 4 4 3 2 3 4 2 1 3 3 1 3 4 3 1 2 3 2
8 10 11 12 13 14 13 14 15 16 13 9 6 1 3 5 2 3 3 2 2 2 2 3 2 3 7 1 4 4 5 5 2 3 2 3 3 3 2 3 1 4 1 2 3 3 6
8 9 11 12 13 15 15 15 15 15 10 6 2 2 2 3 2 3 2 2 4 0 3 1 2 7 4 2 3 4 3 5 4 3 4 3 2 3 0 2 2 5 1 4 4 5 5
8 9 10 12 13 14 14 14 15 16 10 3 1 3 2 2 3 2 3 2 3 5 3 7 7 4 4 4 2 3 7 3 4 5 3 3 2 2 2 3 1 1 2 1 2 5 1
6 8 10 12 13 14 15 15 16 16 13 2 2 2 3 1 2 2 2 1 2 3 5 3 4 2 5 3 3 4 5 4 4 2 4 4 2 1 4 1 3 2 3 2 2 2 4
5 7 9 11 12 14 15 15 15 16 15 5 3 2 2 1 1 2 2 2 2 2 3 4 6 6 6 4 3 5 2 2 5 2 4 4 3 1 1 7 7 3 2 3 0 3 2
4 6 8 9 11 13 14 15 15 17 17 2 3 2 3 3 2 2 2 4 1 2 2 3 2 5 4 5 6 4 5 4 4 4 3 2 4 4 3 3 4 3 1 4 4 5 3
4 6 8 8 9 12 14 16 16 17 15 4 2 1 1 2 3 3 2 3 2 2 2 1 3 1 2 3 4 3 5 1 1 3 2 5 4 3 1 2 2 3 4 3 3 4 5
6 6 6 7 8 9 12 14 15 16 17 3 3 1 2 2 2 1 3 1 2 2 3 2 3 2 4 4 5 3 3 3 1 2 1 1 4 4 3 1 1 3 4 7 6 4 5
7 6 6 6 8 10 11 13 15 16 15 2 2 0 2 2 2 2 2 1 3 3 3 3 3 5 4 4 4 3 1 4 4 4 3 2 4 2 5 6 5 5 5 8 10 12 4
9 8 7 7 8 9 10 11 13 15 16 2 2 2 1 3 1 3 4 5 2 1 3 4 4 3 4 4 2 4 5 3 1 4 3 3 4 3 6 4 4 6 8 10 11 13 13
10 9 10 8 7 8 8 10 12 13 11 3 1 1 1 2 3 2 3 3 2 3 5 4 3 2 7 5 4 5 5 6 5 4 6 4 3 1 5 2 4 7 15 14 6 4 9
12 11 11 11 9 8 8 7 8 10 9 2 2 2 2 5 4 4 3 3 4 7 4 1 4 3 1 3 6 6 6 7 6 6 3 3 2 1 5 4 4 6 2 3 5 10 9
12 11 11 10 10 10 9 7 7 8 7 2 3 2 2 5 3 4 7 5 5 4 3 5 5 2 1 2 3 5 2 2 3 1 2 4 4 3 3 3 9 4 3 3 3 5 8
13 12 14 13 15 11 10 9 7 6 6 2 3 2 2 2 6 5 2 5 4 5 5 5 2 2 2 2 2 3 3 2 2 2 0 4 4 1 1 3 6 1 2 3 1 6 3
14 14 14 13 14 13 12 11 10 7 5 2 2 1 3 3 5 3 4 4 5 2 2 4 5 3 2 3 3 5 5 2 3 4 5 2 3 7 6 5 8 3 4 1 4 5 2
9 11 12 13 13 13 13 13 13 11 9 3 3 3 2 4 6 4 4 5 1 2 3 2 3 3 3 3 4 5 5 6 1 2 6 7 5 5 4 5 9 6 3 5 3 3 3
10 10 10 11 12 14 15 15 15 14 13 9 3 2 2 4 5 1 7 8 3 3 2 4 2 3 5 3 4 3 1 2 5 4 4 3 7 4 7 6 1 5 2 1 2 4 4
Wind_Direction
35 30 25 18 15 6 359 355 347 334 323 321 321 321 325 324 327 345 7 13 19 14 5 11 350 316 272 229 51 75 307 253 216 204 234 252 246 235 248 222 221 226 258 236 85 168 296
30 28 22 16 12 5 1 349 345 332 326 318 319 324 325 320 318 319 338 357 5 6 7 12 10 340 275 275 324 10 353 112 204 200 229 253 259 285 286 263 217 188 246 243 126 172 234
32 25 18 16 6 4 360 353 341 333 327 316 318 319 322 320 319 321 322 323 332 343 358 353 347 311 277 265 312 1 356 18 171 55 318 267 351 312 335 259 275 232 219 209 135 180 191
33 25 19 11 6 3 359 356 345 342 332 314 298 309 317 319 322 324 316 319 313 314 318 335 334 302 292 68 325 283 72 71 10 123 267 344 323 302 285 328 303 220 264 177 185 167 163
32 26 17 9 7 1 359 357 353 348 337 328 309 303 314 317 320 325 307 307 299 295 292 296 265 303 51 184 269 16 348 10 153 234 277 279 263 252 228 261 188 235 193 228 155 181 133
19 23 16 7 4 2 358 359 354 354 345 339 326 316 315 317 319 321 305 288 304 292 240 243 255 281 233 20 9 357 41 101 266 164 245 230 233 240 237 224 202 197 239 202 168 187 151
12 16 11 6 2 5 4 1 358 357 353 344 329 325 314 309 319 323 316 247 214 208 233 14 352 352 57 76 265 163 113 128 34 289 255 213 212 225 234 233 247 272 206 248 170 175 141
11 9 9 3 4 6 5 2 0 360 0 345 332 326 315 307 306 314 291 306 40 9 308 118 272 228 239 334 241 130 250 215 196 270 250 152 249 229 294 279 264 302 291 246 42 140 163
7 10 6 8 7 5 4 5 2 358 358 349 338 329 320 302 299 263 304 42 334 312 265 150 29 341 70 256 3 113 229 109 243 237 247 262 5 28 295 294 306 257 262 266 161 152 244
12 11 8 9 11 8 7 3 2 359 350 345 342 339 332 341 327 0 94 18 313 314 280 90 175 116 194 255 175 68 239 291 231 252 275 238 237 299 270 283 230 248 313 356 124 111 203
10 10 13 8 6 9 6 4 2 358 353 343 337 342 6 90 318 289 12 320 319 251 59 353 67 64 328 288 118 168 44 254 313 349 295 342 338 211 247 338 339 16 338 308 318 219 1
3 16 13 8 3 6 5 5 2 359 354 341 325 338 322 230 220 32 328 312 270 257 9 31 303 288 255 190 167 135 225 219 330 296 223 36 105 323 10 349 325 326 256 197 338 30 28
7 11 13 6 1 0 3 3 5 359 355 348 328 352 299 295 15 333 315 256 322 31 171 1 338 348 323 165 194 206 196 201 242 42 302 165 150 111 290 245 151 275 238 22 11 11 219
3 10 9 7 3 0 2 0 2 357 360 347 320 305 304 17 350 321 259 258 32 151 28 116 250 285 245 135 206 202 255 253 208 254 281 156 303 179 102 43 348 227 112 133 210 183 218
356 1 3 6 4 2 359 0 0 356 4 48 75 202 231 71 316 296 270 29 348 7 352 334 289 255 205 164 197 223 212 250 62 197 302 317 145 128 345 5 30 171 183 37 317 220 86
354 355 0 5 359 358 357 357 358 358 355 48 280 218 97 52 305 278 272 102 27 352 330 283 296 25 320 48 203 178 180 5 106 9 11 324 293 226 121 257 241 295 294 109 323 300 264
346 348 359 360 357 356 354 355 356 357 352 323 251 266 109 131 297 249 26 49 342 85 357 324 342 307 328 335 346 291 326 60 25 92 322 328 249 166 101 204 185 167 200 206 174 196 248
328 342 351 358 351 351 351 351 351 352 346 298 294 270 155 182 293 216 39 345 297 359 157 292 264 281 301 328 305 290 7 73 14 350 280 57 311 243 190 57 21 341 277 166 138 291 260
289 323 337 344 345 346 350 350 350 351 356 316 264 12 162 222 38 8 184 174 271 260 255 285 275 206 331 288 326 33 8 66 60 303 339 358 261 310 334 347 9 238 204 229 63 56 245
278 296 315 325 333 339 346 351 348 352 347 287 290 300 149 226 183 256 357 203 221 188 270 281 300 275 281 258 179 285 301 136 133 289 316 284 272 238 211 284 224 222 233 192 164 154 221
257 277 288 302 316 329 342 350 348 348 350 291 226 352 111 287 137 312 172 288 281 227 224 200 232 239 298 301 291 239 233 199 180 148 229 238 264 346 278 263 249 228 260 206 215 232 214
257 254 262 276 296 314 330 344 349 347 336 257 305 336 204 271 154 241 176 216 253 153 203 181 221 307 250 249 336 306 2 251 343 181 233 154 273 351 284 250 218 263 253 247 227 239 257
260 266 274 258 272 293 313 331 342 351 345 305 38 216 166 217 194 223 219 224 185 107 218 254 266 310 260 264 339 308 302 296 277 307 211 188 219 177 272 202 294 278 234 217 216 203 205
255 250 262 271 249 265 282 305 331 348 6 299 4 311 286 265 194 221 201 205 227 215 244 174 184 246 171 271 287 264 254 256 264 254 244 292 216 258 267 341 252 239 74 31 226 224 205
246 250 254 265 260 249 258 273 304 328 352 300 334 287 264 268 234 259 257 236 264 231 230 234 227 90 353 278 311 302 246 277 232 213 225 246 308 279 217 225 289 263 211 176 197 281 190
245 251 258 254 265 257 250 244 259 290 319 276 284 343 276 286 247 264 236 213 218 219 170 201 101 81 233 230 221 244 258 316 258 174 246 303 327 290 274 235 250 99 112 37 37 280 77
249 248 248 245 244 246 249 240 230 235 252 275 299 180 290 257 268 160 205 222 196 286 275 136 166 174 256 200 214 221 236 171 255 220 167 171 216 223 246 272 286 111 137 149 113 258 87
315 290 268 257 249 252 249 238 224 216 203 186 281 171 208 271 285 269 217 213 269 237 214 149 83 223 156 225 208 228 211 205 168 208 174 174 185 201 194 236 259 141 88 175 193 75 121
349 327 320 313 284 262 254 247 235 218 196 177 242 175 202 232 263 301 268 266 239 312 279 193 206 140 210 206 227 245 239 155 193 234 6 247 205 201 193 221 134 207 73 325 132 157 164